sat.trackr.live / text

‹ back to catalog

STARLINK-1458

NORAD 45675 · 2020-035U

PAYLOAD ACTIVE UNKNOWN

§ Identity

Operator
Country
US
Launch date
2020-06-04
Launch site
AFETR
Launch vehicle
Mass (kg)
RCS (m²)

Purposes: comms

External: N2YO · Heavens-Above · Gunter

§ Orbital elements

Epoch: 2026-09-13T03:16:25.866336Z

Period
91.37 min
Inclination
53.0399°
Eccentricity
0.0005842
Mean motion
15.75960677 rev/d
Perigee alt
338.0 km
Apogee alt
345.8 km
Semi-major
6,720.0 km
B*
4.3282e-4
RAAN
223.7831°
Arg perigee
70.3393°
Mean anomaly
289.8256°
Rev number
34,809

§ Raw data

STARLINK-14581 45675U 20035U   26256.13641049  .00068452  00000+0  43282-3 0  99922 45675  53.0399 223.7831 0005842  70.3393 289.8256 15.75960677348095

JSON: /api/v1/satellites/45675 · /tle

For live sub-satellite position, see the globe view (requires WebGL).

§ Visibility from observer

Set your observer location to see the next 7 days of passes ≥ 10°. The values pass through the URL so the page stays shareable.

No JS? Fill the form by hand. The geolocation button needs JavaScript.